This demonstration page uses our WeatherBlox Daily Observations layout. Learn more.

Hourly Observations for May 19, 2020

Temp ( °F °C ) Dew Point ( °F °C ) Humidity (%) Winds ( mph kmh ) Pressure ( in mb ) Visibility ( mi km ) Precip ( " mm )
12:15 am 00:15 Cloudy 63 17 46 8 56 56 ENE 7 11 30.07 1018 10 16.0934 0 0
12:35 am 00:35 Cloudy 63 17 46 8 56 56 ENE 6 9 30.07 1018 10 16.0934 0 0
12:55 am 00:55 Cloudy 63 17 45 7 52 52 ENE 6 9 30.07 1018 10 16.0934 0 0
1:15 am 01:15 Cloudy 63 17 45 7 52 52 ENE 6 9 30.08 1018 10 16.0934 0 0
1:35 am 01:35 Cloudy 61 16 45 7 55 55 ENE 5 7 30.07 1018 10 16.0934 0 0
1:55 am 01:55 Cloudy 61 16 45 7 55 55 ENE 6 9 30.08 1019 10 16.0934 0 0
2:15 am 02:15 Cloudy 61 16 45 7 55 55 ENE 6 9 30.07 1018 10 16.0934 0 0
2:35 am 02:35 Cloudy 61 16 45 7 55 55 ENE 8 13 30.08 1019 10 16.0934 0 0
2:55 am 02:55 Cloudy 61 16 46 8 59 59 ENE 7 11 30.07 1018 10 16.0934 0 0
3:15 am 03:15 Partly Cloudy 61 16 45 7 55 55 E 5 7 30.07 1018 10 16.0934 0 0
3:35 am 03:35 Partly Cloudy 59 15 46 8 63 63 ENE 3 6 30.07 1018 10 16.0934 0 0
3:55 am 03:55 Mostly Cloudy 59 15 46 8 63 63 ENE 5 7 30.08 1019 10 16.0934 0 0
4:15 am 04:15 Cloudy 59 15 46 8 63 63 ENE 6 9 30.08 1019 10 16.0934 0 0
4:35 am 04:35 Cloudy 59 15 46 8 63 63 ENE 6 9 30.08 1019 10 16.0934 0 0
4:55 am 04:55 Cloudy 59 15 46 8 63 63 ENE 9 15 30.09 1019 10 16.0934 0 0
5:15 am 05:15 Cloudy 57 14 46 8 67 67 ENE 9 15 30.09 1019 10 16.0934 0 0
5:35 am 05:35 Cloudy 57 14 46 8 67 67 ENE 7 11 30.09 1019 10 16.0934 0 0
5:55 am 05:55 Cloudy 57 14 46 8 67 67 NE 6 9 30.1 1019 10 16.0934 0 0
6:15 am 06:15 Cloudy 55 13 46 8 72 72 NE 6 9 30.1 1019 10 16.0934 0 0
6:35 am 06:35 Cloudy 55 13 46 8 72 72 NE 5 7 30.11 1020 10 16.0934 0 0
6:55 am 06:55 Cloudy 55 13 46 8 72 72 ENE 7 11 30.12 1020 10 16.0934 0 0
7:15 am 07:15 Cloudy 55 13 48 9 77 77 NE 7 11 30.13 1020 10 16.0934 0 0
7:35 am 07:35 Cloudy 57 14 48 9 72 72 NE 7 11 30.13 1020 10 16.0934 0 0
7:55 am 07:55 Mostly Cloudy 57 14 48 9 72 72 ENE 3 6 30.14 1021 10 16.0934 0 0
8:15 am 08:15 Mostly Cloudy 59 15 50 10 72 72 NE 5 7 30.14 1021 10 16.0934 0 0
8:35 am 08:35 Mostly Cloudy 59 15 50 10 72 72 ENE 7 11 30.14 1021 10 16.0934 0 0
8:55 am 08:55 Cloudy 59 15 48 9 68 68 ENE 13 20 30.14 1021 10 16.0934 0 0
9:15 am 09:15 Cloudy 61 16 48 9 63 63 ENE 9 15 30.15 1021 10 16.0934 0 0
9:35 am 09:35 Partly Cloudy 61 16 48 9 63 63 E 5 7 30.15 1021 10 16.0934 0 0
9:55 am 09:55 Mostly Cloudy 61 16 46 8 59 59 ENE 12 19 30.16 1021 10 16.0934 0 0
10:15 am 10:15 Cloudy 61 16 46 8 59 59 ESE 8 13 30.16 1021 10 16.0934 0 0
10:35 am 10:35 Cloudy 63 17 46 8 56 56 E 13 20 30.16 1021 10 16.0934 0 0
10:55 am 10:55 Mostly Cloudy 63 17 45 7 52 52 E 15 24 30.16 1021 10 16.0934 0 0
11:15 am 11:15 Sunny 63 17 43 6 49 49 E 12 19 30.17 1022 10 16.0934 0 0
11:35 am 11:35 Partly Cloudy 63 17 43 6 49 49 ESE 9 15 30.18 1022 10 16.0934 0 0
11:55 am 11:55 Partly Cloudy 63 17 41 5 45 45 ESE 15 24 30.18 1022 10 16.0934 0 0
12:15 pm 12:15 Sunny 63 17 41 5 45 45 E 10 17 30.18 1022 10 16.0934 0 0
12:35 pm 12:35 Sunny 64 18 41 5 43 43 ESE 18 30 30.17 1022 10 16.0934 0 0
12:55 pm 12:55 Sunny 66 19 41 5 40 40 E 10 17 30.17 1022 10 16.0934 0 0
1:15 pm 13:15 Sunny 64 18 39 4 40 40 E 10 17 30.17 1022 10 16.0934 0 0
1:35 pm 13:35 Partly Cloudy 66 19 41 5 40 40 E 17 28 30.17 1022 10 16.0934 0 0
1:55 pm 13:55 Mostly Cloudy 66 19 39 4 37 37 ESE 13 20 30.17 1022 10 16.0934 0 0
2:15 pm 14:15 Cloudy 66 19 39 4 37 37 ESE 13 20 30.17 1022 10 16.0934 0 0
2:35 pm 14:35 Partly Cloudy 66 19 37 3 35 35 E 15 24 30.17 1022 10 16.0934 0 0
2:55 pm 14:55 Partly Cloudy 68 20 36 2 30 30 ESE 16 26 30.16 1021 10 16.0934 0 0
3:15 pm 15:15 Partly Cloudy 68 20 36 2 30 30 E 17 28 30.17 1022 10 16.0934 0 0
3:35 pm 15:35 Sunny 68 20 34 1 28 28 ESE 16 26 30.16 1021 10 16.0934 0 0
3:55 pm 15:55 Partly Cloudy 66 19 36 2 32 32 ESE 17 28 30.17 1022 10 16.0934 0 0
4:15 pm 16:15 Sunny 66 19 36 2 32 32 E 9 15 30.17 1022 10 16.0934 0 0
4:35 pm 16:35 Sunny 64 18 36 2 34 34 ESE 12 19 30.18 1022 10 16.0934 0 0
4:55 pm 16:55 Sunny 64 18 36 2 34 34 ESE 16 26 30.18 1022 10 16.0934 0 0
5:15 pm 17:15 Sunny 64 18 36 2 34 34 ESE 15 24 30.18 1022 10 16.0934 0 0
5:35 pm 17:35 Sunny 64 18 36 2 34 34 ESE 15 24 30.19 1022 10 16.0934 0 0
5:55 pm 17:55 Sunny 63 17 34 1 34 34 ESE 16 26 30.21 1023 10 16.0934 0 0
6:15 pm 18:15 Sunny 63 17 34 1 34 34 ESE 18 30 30.21 1023 10 16.0934 0 0
6:35 pm 18:35 Sunny 63 17 34 1 34 34 ESE 15 24 30.21 1023 10 16.0934 0 0
6:55 pm 18:55 Sunny 61 16 34 1 36 36 ESE 14 22 30.22 1023 10 16.0934 0 0
7:15 pm 19:15 Sunny 61 16 32 0 34 34 E 12 19 30.23 1024 10 16.0934 0 0
7:35 pm 19:35 Sunny 61 16 32 0 34 34 ESE 15 24 30.24 1024 10 16.0934 0 0
7:55 pm 19:55 Sunny 61 16 32 0 34 34 ESE 14 22 30.25 1024 10 16.0934 0 0
8:15 pm 20:15 Sunny 59 15 34 1 39 39 E 10 17 30.26 1025 10 16.0934 0 0
8:35 pm 20:35 Clear 59 15 34 1 39 39 E 10 17 30.26 1025 10 16.0934 0 0
8:55 pm 20:55 Clear 59 15 34 1 39 39 E 6 9 30.27 1025 10 16.0934 0 0
9:15 pm 21:15 Clear 59 15 34 1 39 39 E 8 13 30.28 1025 10 16.0934 0 0
9:35 pm 21:35 Clear 59 15 34 1 39 39 E 7 11 30.29 1026 10 16.0934 0 0
9:55 pm 21:55 Clear 59 15 32 0 36 36 E 10 17 30.29 1026 10 16.0934 0 0
10:15 pm 22:15 Clear 57 14 34 1 41 41 E 8 13 30.3 1026 10 16.0934 0 0
10:35 pm 22:35 Clear 57 14 34 1 41 41 E 9 15 30.3 1026 10 16.0934 0 0
10:55 pm 22:55 Clear 57 14 32 0 39 39 E 15 24 30.3 1026 10 16.0934 0 0
11:15 pm 23:15 Clear 55 13 30 -1 38 38 E 12 19 30.3 1026 10 16.0934 0 0
11:35 pm 23:35 Clear 55 13 30 -1 38 38 ESE 13 20 30.3 1026 10 16.0934 0 0
11:55 pm 23:55 Clear 55 13 32 0 41 41 E 9 15 30.3 1026 10 16.0934 0 0

Powered by AerisWeather